Starlink 11090

operational
NORAD ID: 59422 Int'l Des: 2024-065 Owner: SPXS Country: US Constellation: starlink
LEOCIRCULAR

About Starlink 11090

Description loading...

Live Position

Loading 3D Globe...

Upcoming Passes

Altitude History

Altitude vs Time

uPlot chart will show altitude changes over time

Two-Line Element Set

1 59422U 24065B 25258.66324817 .00002424 00000-0 24855-4 0 9998
2 59422 53.1624 236.6700 0001071 86.9901 273.1239 15.69713197 84043
Epoch: Sep 15, 2025 • Age: 15 hours

Current Status

Altitude 377.8 km
Velocity 7.68 km/s
Sub-Earth Point -50.34°S, 70.86°E
Launch Date Apr 7, 2024
Age 1.4 years
Type internet

Technical Details

Classification Payload
Mass 960.00 kg
Dry Mass 910.00 kg
Total Mass 960.00 kg
Length 0.30 m
Diameter 4.10 m
Span 29.00 m
Shape Box + pan
Manufacturer SPXS
Bus Type Starlink V2MD
Phase Status In Orbit
Owner/State SPXS/US

Large Constellations

Loading constellations...